Regional Weather Roundup
Issued by NWS

Home | Current Version | Previous Version | Graphics & Text | Print | Product List | Glossary On
Versions: 1 2 3 4 5 6 7 8 9 10 11 12 13 14 15 16 17 18 19 20 21 22 23 24 25 26 27 28 29 30 31 32 33 34 35 36 37 38 39 40 41 42 43 44 45 46 47 48 49 50
000
ASUS45 KCYS 260710
RWRWY

WYOMING REGIONAL WEATHER ROUNDUP
NATIONAL WEATHER SERVICE CHEYENNE WY
1200 AM MST MON JAN 26 2015

NOTE:  "FAIR" INDICATES FEW OR NO CLOUDS BELOW 12,000 FEET
WITH NO SIGNIFICANT WEATHER AND/OR OBSTRUCTIONS TO VISIBILITY.

WYZ001-260800-
YELLOWSTONE NATIONAL PARK

CITY           SKY/WX    TMP DP  RH WIND       PRES   REMARKS
LK YELLOWSTONE   N/A     23  21  92 CALM      30.47S
W YELLOWSTONE  NOT AVBL

$$
WYZ002>013-054>058-071-098>099-260800-
NORTHERN WYOMING

CITY           SKY/WX    TMP DP  RH WIND       PRES   REMARKS
JACKSON        CLOUDY    23  23 100 CALM      30.46S
CODY           FAIR      55  23  28 W9        30.19S
GREYBULL       FAIR      23  20  88 W3        30.22R
WORLAND        FAIR      23  20  88 S7        30.21R WCI  15
SHERIDAN       FAIR      39  29  67 SW6       30.09R WCI  35
BUFFALO        FAIR      48  27  44 S13       30.13R
GILLETTE       FAIR      44  29  55 W12       30.09R
HULETT           N/A    N/A N/A N/A MISG        N/A
NEWCASTLE      FAIR      36  30  80 CALM      30.08S

$$
WYZ014>020-022>026-101>103-260800-
CENTRAL WYOMING

CITY           SKY/WX    TMP DP  RH WIND       PRES   REMARKS
BIG PINEY      FAIR      30  24  78 N9        30.39S WCI  22
PINEDALE       FAIR      32  27  80 CALM      30.38F
DUBOIS         FAIR      43  23  45 W14G20    30.33R
LANDER         FAIR      40  26  57 N7        30.24R
RIVERTON       FAIR      31  25  78 SE5       30.26R WCI  26
CASPER         FAIR      44  27  51 SW15G22   30.22R
DOUGLAS        FAIR      38  29  70 N9        30.19R WCI  31

$$
WYZ021-027>030-104>119-260800-
SOUTHERN WYOMING

CITY           SKY/WX    TMP DP  RH WIND       PRES   REMARKS
EVANSTON       FAIR      32  28  85 SW6       30.42S WCI  26
KEMMERER       FAIR      32  30  93 W7        30.41F WCI  26
FORT BRIDGER   FAIR      36  28  74 W8        30.42F WCI  29
ROCK SPRINGS   FAIR      34  27  75 W12       30.39S WCI  25
DIXON          FAIR      28  24  86 CALM      30.44S
RAWLINS        FAIR      38  26  62 W23G32    30.33R WCI  27
SARATOGA       FAIR      34  27  75 S12       30.38S WCI  25
LARAMIE        FAIR      30  22  72 NE3       30.29R
CHEYENNE       FAIR      48  24  39 NW15      30.21S
TORRINGTON     FAIR      41  30  65 NW14      30.13F
PINE BLUFFS    FAIR      41  28  60 W15       30.18F

$$



USA.gov is the U.S. government's official web portal to all federal, state and local government web resources and services.